Location: Casco Volunteer Fire Department
(44.5576°N, 87.6146°W)
Time: 05:20:59
(UTC+00:00)

Thor Agena Rocket - Pass Details

Date: 22 January 2026
Orbit: 755 x 802 km, 99.1° (Epoch: 11 February)

Event Time Altitude Azimuth Distance (km) Brightness Sun altitude
Rises 23:07:24 0° 160° (SSE) 3,197 6.8 -4.3°
Reaches altitude 10° 23:09:41 10° 160° (SSE) 2,275 6.0 -4.7°
Maximum altitude 23:14:41 81° 74° (ENE) 771 3.5 -5.5°
Drops below altitude 10° 23:19:44 10° 347° (NNW) 2,298 5.9 -6.3°
Sets 23:22:03 0° 347° (NNW) 3,232 6.7 -6.7°
